| time (UTC) | temp F | wind direction | speed knots | gust knots | rain 1hr in | rain 24hr in | rain mn in | humidity % | barometer mb |
| 20260506162504 | 63 | 246 | 4.3 | 11.3 | 0.03 | 0.04 | 0.04 | 83 | 1008.4 |
| 20260506162004 | 64 | 241 | 5.2 | 13.0 | 0.04 | 0.04 | 0.04 | 83 | 1008.5 |
| 20260506161504 | 64 | 233 | 2.6 | 7.8 | 0.03 | 0.03 | 0.03 | 83 | 1008.6 |
| 20260506161004 | 64 | 246 | 2.6 | 7.8 | 0.03 | 0.03 | 0.03 | 82 | 1008.6 |
| 20260506160004 | 64 | 252 | 2.6 | 6.1 | 0.02 | 0.02 | 0.02 | 81 | 1008.7 |
| 20260506154504 | 65 | 241 | 3.5 | 7.8 | 0.01 | 0.01 | 0.01 | 80 | 1008.8 |
| 20260506154004 | 65 | 269 | 2.6 | 10.4 | 0.01 | 0.01 | 0.01 | 80 | 1008.6 |
| 20260506153503 | 65 | 235 | 4.3 | 7.8 | 0.01 | 0.01 | 0.01 | 79 | 1008.6 |
| 20260506152504 | 66 | 240 | 4.3 | 10.4 | 0.01 | 0.01 | 0.01 | 77 | 1008.5 |
| 20260506152004 | 66 | 245 | 5.2 | 7.8 | 0.00 | 0.00 | 0.00 | 77 | 1008.6 |
| 20260506151504 | 66 | 268 | 4.3 | 8.7 | 0.00 | 0.00 | 0.00 | 76 | 1008.6 |
| 20260506151004 | 66 | 247 | 3.5 | 13.9 | 0.00 | 0.00 | 0.00 | 74 | 1008.9 |
| 20260506150505 | 67 | 229 | 4.3 | 10.4 | 0.00 | 0.00 | 0.00 | 73 | 1008.9 |
| 20260506144504 | 67 | 263 | 5.2 | 10.4 | 0.00 | 0.00 | 0.00 | 72 | 1008.7 |
| 20260506143504 | 67 | 261 | 7.8 | 11.3 | 0.00 | 0.00 | 0.00 | 71 | 1008.9 |
| 20260506143004 | 67 | 251 | 5.2 | 10.4 | 0.00 | 0.00 | 0.00 | 71 | 1008.8 |
| 20260506142504 | 67 | 262 | 7.0 | 14.8 | 0.00 | 0.00 | 0.00 | 71 | 1008.7 |
| 20260506142005 | 67 | 252 | 5.2 | 13.9 | 0.00 | 0.00 | 0.00 | 72 | 1008.6 |
| 20260506141005 | 67 | 261 | 6.1 | 14.8 | 0.00 | 0.00 | 0.00 | 72 | 1008.7 |
| 20260506140505 | 67 | 254 | 4.3 | 12.2 | 0.00 | 0.00 | 0.00 | 72 | 1008.8 |
| 20260506140004 | 67 | 255 | 7.8 | 13.0 | 0.00 | 0.00 | 0.00 | 72 | 1008.6 |
| 20260506135004 | 67 | 258 | 4.3 | 11.3 | 0.00 | 0.00 | 0.00 | 72 | 1008.9 |
| 20260506134504 | 67 | 243 | 9.6 | 18.2 | 0.00 | 0.00 | 0.00 | 72 | 1008.9 |
| 20260506134004 | 67 | 250 | 7.8 | 11.3 | 0.00 | 0.00 | 0.00 | 72 | 1008.9 |
| 20260506133504 | 66 | 235 | 7.8 | 14.8 | 0.00 | 0.00 | 0.00 | 72 | 1009.0 |
| 20260506133004 | 66 | 239 | 7.8 | 15.6 | 0.00 | 0.00 | 0.00 | 72 | 1009.1 |
| 20260506132505 | 66 | 249 | 6.1 | 13.0 | 0.00 | 0.00 | 0.00 | 72 | 1009.0 |
| 20260506132005 | 66 | 228 | 8.7 | 14.8 | 0.00 | 0.00 | 0.00 | 73 | 1008.9 |
| 20260506131004 | 66 | 274 | 5.2 | 10.4 | 0.00 | 0.00 | 0.00 | 74 | 1009.2 |
| 20260506130005 | 66 | 246 | 6.1 | 11.3 | 0.00 | 0.01 | 0.00 | 74 | 1009.0 |
| 20260506125504 | 66 | 269 | 2.6 | 7.0 | 0.00 | 0.01 | 0.00 | 75 | 1008.7 |
| 20260506125004 | 65 | 258 | 5.2 | 10.4 | 0.00 | 0.01 | 0.00 | 75 | 1008.7 |
| 20260506124504 | 65 | 237 | 5.2 | 13.0 | 0.00 | 0.01 | 0.00 | 75 | 1008.6 |
| 20260506124004 | 65 | 268 | 5.2 | 10.4 | 0.00 | 0.01 | 0.00 | 75 | 1008.6 |
| 20260506123504 | 65 | 240 | 7.0 | 12.2 | 0.00 | 0.01 | 0.00 | 75 | 1008.7 |
| 20260506123004 | 65 | 247 | 6.1 | 10.4 | 0.00 | 0.01 | 0.00 | 76 | 1008.7 |
| 20260506122504 | 65 | 237 | 4.3 | 10.4 | 0.00 | 0.01 | 0.00 | 76 | 1008.8 |
| 20260506122004 | 65 | 252 | 6.1 | 10.4 | 0.00 | 0.01 | 0.00 | 76 | 1008.9 |
| 20260506121004 | 65 | 242 | 4.3 | 10.4 | 0.00 | 0.01 | 0.00 | 76 | 1008.9 |
| 20260506120504 | 65 | 233 | 6.1 | 12.2 | 0.00 | 0.01 | 0.00 | 76 | 1009.0 |
| 20260506120005 | 65 | 237 | 5.2 | 10.4 | 0.00 | 0.01 | 0.00 | 76 | 1009.1 |
| 20260506115504 | 65 | 261 | 5.2 | 11.3 | 0.00 | 0.01 | 0.00 | 76 | 1009.1 |
| 20260506115004 | 65 | 219 | 6.1 | 12.2 | 0.00 | 0.01 | 0.00 | 77 | 1009.1 |
| 20260506113505 | 64 | 219 | 4.3 | 7.0 | 0.00 | 0.01 | 0.00 | 77 | 1009.1 |
| 20260506113004 | 64 | 254 | 5.2 | 8.7 | 0.00 | 0.01 | 0.00 | 77 | 1009.0 |
| 20260506112504 | 64 | 244 | 4.3 | 10.4 | 0.00 | 0.01 | 0.00 | 78 | 1009.1 |
| 20260506112003 | 64 | 245 | 4.3 | 10.4 | 0.00 | 0.01 | 0.00 | 78 | 1009.1 |
| 20260506111504 | 64 | 245 | 4.3 | 12.2 | 0.00 | 0.01 | 0.00 | 78 | 1009.1 |
| 20260506111004 | 64 | 259 | 4.3 | 8.7 | 0.00 | 0.01 | 0.00 | 78 | 1009.0 |
| 20260506110504 | 64 | 251 | 5.2 | 11.3 | 0.00 | 0.01 | 0.00 | 78 | 1009.0 |
| 20260506110004 | 64 | 247 | 5.2 | 8.7 | 0.00 | 0.01 | 0.00 | 79 | 1009.0 |
| 20260506105503 | 64 | 234 | 6.1 | 10.4 | 0.00 | 0.01 | 0.00 | 79 | 1008.9 |
| 20260506105004 | 64 | 234 | 4.3 | 7.8 | 0.00 | 0.01 | 0.00 | 79 | 1008.8 |
| 20260506104504 | 64 | 221 | 4.3 | 8.7 | 0.00 | 0.01 | 0.00 | 79 | 1008.8 |
| 20260506104004 | 64 | 236 | 2.6 | 8.7 | 0.00 | 0.01 | 0.00 | 79 | 1009.0 |
| 20260506103504 | 64 | 233 | 2.6 | 7.0 | 0.00 | 0.01 | 0.00 | 79 | 1009.0 |
| 20260506103004 | 64 | 250 | 5.2 | 11.3 | 0.00 | 0.01 | 0.00 | 79 | 1009.0 |
| 20260506102004 | 64 | 235 | 5.2 | 11.3 | 0.00 | 0.01 | 0.00 | 79 | 1008.9 |
| 20260506101504 | 64 | 231 | 4.3 | 7.8 | 0.00 | 0.01 | 0.00 | 79 | 1008.7 |
| 20260506101004 | 64 | 257 | 3.5 | 7.0 | 0.00 | 0.01 | 0.00 | 79 | 1008.8 |
| 20260506100504 | 64 | 246 | 2.6 | 7.8 | 0.00 | 0.01 | 0.00 | 79 | 1008.8 |
| 20260506100004 | 64 | 232 | 6.1 | 12.2 | 0.00 | 0.01 | 0.00 | 79 | 1008.7 |
| 20260506095004 | 64 | 241 | 5.2 | 10.4 | 0.00 | 0.01 | 0.00 | 79 | 1008.6 |
| 20260506094504 | 64 | 252 | 3.5 | 7.8 | 0.00 | 0.01 | 0.00 | 79 | 1008.6 |
| 20260506094004 | 64 | 278 | 1.7 | 7.8 | 0.00 | 0.01 | 0.00 | 79 | 1008.6 |
| 20260506093004 | 64 | 245 | 3.5 | 10.4 | 0.00 | 0.01 | 0.00 | 79 | 1008.7 |
| 20260506092504 | 64 | 242 | 2.6 | 7.0 | 0.00 | 0.01 | 0.00 | 79 | 1008.7 |
| 20260506092004 | 64 | 229 | 2.6 | 6.1 | 0.00 | 0.01 | 0.00 | 79 | 1008.7 |
| 20260506091504 | 64 | 232 | 5.2 | 7.8 | 0.00 | 0.01 | 0.00 | 79 | 1008.8 |
| 20260506091004 | 64 | 245 | 3.5 | 7.8 | 0.00 | 0.01 | 0.00 | 79 | 1008.9 |
| 20260506090504 | 64 | 247 | 2.6 | 10.4 | 0.00 | 0.01 | 0.00 | 78 | 1008.9 |
| 20260506090004 | 64 | 231 | 5.2 | 8.7 | 0.00 | 0.01 | 0.00 | 78 | 1008.8 |
| 20260506085504 | 64 | 261 | 3.5 | 7.0 | 0.00 | 0.01 | 0.00 | 78 | 1008.9 |
| 20260506085004 | 64 | 254 | 3.5 | 10.4 | 0.00 | 0.01 | 0.00 | 78 | 1008.9 |
| 20260506084504 | 64 | 252 | 4.3 | 10.4 | 0.00 | 0.01 | 0.00 | 78 | 1008.9 |
| 20260506084004 | 64 | 242 | 4.3 | 7.0 | 0.00 | 0.01 | 0.00 | 78 | 1008.9 |
| 20260506083504 | 64 | 246 | 4.3 | 8.7 | 0.00 | 0.01 | 0.00 | 77 | 1008.9 |
| 20260506082504 | 64 | 227 | 2.6 | 7.0 | 0.00 | 0.01 | 0.00 | 77 | 1008.9 |
| 20260506081503 | 64 | 242 | 4.3 | 10.4 | 0.00 | 0.01 | 0.00 | 76 | 1009.0 |
| 20260506081005 | 65 | 241 | 4.3 | 8.7 | 0.00 | 0.01 | 0.00 | 76 | 1009.0 |
| 20260506073504 | 65 | 242 | 5.2 | 10.4 | 0.00 | 0.01 | 0.00 | 74 | 1008.9 |
| 20260506073004 | 65 | 237 | 4.3 | 10.4 | 0.00 | 0.01 | 0.00 | 73 | 1008.9 |
| 20260506072004 | 65 | 241 | 4.3 | 7.0 | 0.00 | 0.01 | 0.00 | 72 | 1008.9 |
| 20260506071504 | 66 | 252 | 5.2 | 10.4 | 0.00 | 0.01 | 0.00 | 72 | 1009.0 |
| 20260506071004 | 66 | 237 | 4.3 | 8.7 | 0.00 | 0.01 | 0.00 | 71 | 1008.9 |
| 20260506070504 | 66 | 239 | 3.5 | 8.7 | 0.00 | 0.01 | 0.00 | 71 | 1009.0 |
| 20260506062505 | 66 | 236 | 2.6 | 10.4 | 0.00 | 0.01 | 0.00 | 69 | 1009.4 |
| 20260506061504 | 66 | 236 | 5.2 | 8.7 | 0.00 | 0.01 | 0.00 | 68 | 1009.4 |
| 20260506061005 | 66 | 257 | 2.6 | 7.0 | 0.00 | 0.01 | 0.00 | 68 | 1009.4 |
| 20260506060504 | 66 | 249 | 4.3 | 8.7 | 0.00 | 0.01 | 0.00 | 68 | 1009.3 |
| 20260506051004 | 67 | 243 | 3.5 | 8.7 | 0.00 | 0.01 | 0.00 | 65 | 1009.6 |
| 20260506050504 | 67 | 242 | 5.2 | 7.8 | 0.00 | 0.01 | 0.00 | 64 | 1009.8 |
| 20260506045004 | 68 | 260 | 5.2 | 8.7 | 0.00 | 0.01 | 0.00 | 64 | 1009.8 |
| 20260506044504 | 68 | 252 | 4.3 | 10.4 | 0.00 | 0.01 | 0.00 | 64 | 1009.8 |
| 20260506044004 | 68 | 242 | 5.2 | 11.3 | 0.00 | 0.01 | 0.00 | 63 | 1009.8 |
| 20260506043504 | 68 | 263 | 4.3 | 10.4 | 0.00 | 0.01 | 0.00 | 63 | 1009.7 |
| 20260506043004 | 68 | 246 | 6.1 | 10.4 | 0.00 | 0.01 | 0.00 | 63 | 1009.8 |
| 20260506042504 | 68 | 251 | 4.3 | 7.8 | 0.00 | 0.01 | 0.00 | 62 | 1009.8 |
| 20260506042004 | 68 | 263 | 4.3 | 7.8 | 0.00 | 0.01 | 0.00 | 62 | 1009.8 |
| 20260506041504 | 68 | 278 | 2.6 | 8.7 | 0.00 | 0.01 | 0.00 | 62 | 1009.8 |
| 20260506041004 | 68 | 252 | 4.3 | 7.0 | 0.00 | 0.01 | 0.00 | 62 | 1009.7 |
| 20260506040505 | 69 | 252 | 2.6 | 10.4 | 0.00 | 0.01 | 0.00 | 61 | 1009.7 |
| 20260506040004 | 69 | 249 | 5.2 | 10.4 | 0.00 | 0.01 | 0.00 | 61 | 1009.7 |
| 20260506035504 | 69 | 248 | 4.3 | 13.0 | 0.00 | 0.01 | 0.01 | 61 | 1009.7 |
| 20260506035004 | 69 | 237 | 5.2 | 11.3 | 0.00 | 0.01 | 0.01 | 61 | 1009.7 |
| 20260506034504 | 69 | 248 | 3.5 | 8.7 | 0.00 | 0.01 | 0.01 | 60 | 1009.7 |
| 20260506033504 | 69 | 276 | 4.3 | 11.3 | 0.00 | 0.01 | 0.01 | 60 | 1009.8 |
| 20260506033005 | 69 | 255 | 5.2 | 8.7 | 0.00 | 0.01 | 0.01 | 60 | 1009.8 |
| 20260506032504 | 69 | 243 | 4.3 | 10.4 | 0.00 | 0.01 | 0.01 | 60 | 1009.7 |
| 20260506030504 | 70 | 255 | 5.2 | 10.4 | 0.00 | 0.01 | 0.01 | 58 | 1009.7 |
| 20260506030004 | 70 | 231 | 6.1 | 13.0 | 0.00 | 0.01 | 0.01 | 58 | 1009.6 |
| 20260506025505 | 70 | 244 | 6.1 | 13.9 | 0.00 | 0.01 | 0.01 | 57 | 1009.6 |
| 20260506025004 | 71 | 254 | 5.2 | 15.6 | 0.00 | 0.01 | 0.01 | 57 | 1009.6 |
| 20260506024004 | 71 | 237 | 5.2 | 12.2 | 0.00 | 0.01 | 0.01 | 56 | 1009.6 |
| 20260506023504 | 71 | 261 | 5.2 | 10.4 | 0.00 | 0.01 | 0.01 | 55 | 1009.6 |
| 20260506023004 | 71 | 243 | 7.0 | 19.1 | 0.00 | 0.01 | 0.01 | 54 | 1009.5 |
| 20260506022004 | 72 | 247 | 8.7 | 17.4 | 0.00 | 0.01 | 0.01 | 53 | 1009.5 |
| 20260506021504 | 72 | 256 | 7.8 | 19.1 | 0.00 | 0.01 | 0.01 | 52 | 1009.5 |
| 20260506021004 | 72 | 256 | 5.2 | 13.9 | 0.00 | 0.01 | 0.01 | 51 | 1009.4 |
| 20260506020505 | 72 | 241 | 7.8 | 13.9 | 0.00 | 0.01 | 0.01 | 50 | 1009.5 |
| 20260506020004 | 73 | 264 | 6.1 | 13.9 | 0.00 | 0.01 | 0.01 | 49 | 1009.4 |
| 20260506015504 | 73 | 253 | 6.1 | 13.9 | 0.00 | 0.01 | 0.01 | 48 | 1009.4 |
| 20260506015004 | 73 | 247 | 6.1 | 10.4 | 0.00 | 0.01 | 0.01 | 47 | 1009.2 |
| 20260506014504 | 74 | 248 | 6.1 | 13.0 | 0.00 | 0.01 | 0.01 | 46 | 1009.2 |
| 20260506014004 | 74 | 272 | 7.0 | 15.6 | 0.00 | 0.01 | 0.01 | 45 | 1009.2 |
| 20260506013504 | 74 | 242 | 4.3 | 19.1 | 0.00 | 0.01 | 0.01 | 45 | 1009.2 |
| 20260506012504 | 74 | 231 | 6.1 | 13.0 | 0.00 | 0.01 | 0.01 | 44 | 1008.9 |
| 20260506011504 | 75 | 221 | 7.0 | 12.2 | 0.00 | 0.01 | 0.01 | 44 | 1008.8 |
| 20260506011004 | 75 | 224 | 6.1 | 13.9 | 0.00 | 0.01 | 0.01 | 44 | 1008.9 |
| 20260506010504 | 75 | 248 | 3.5 | 13.0 | 0.00 | 0.01 | 0.01 | 43 | 1008.6 |
| 20260506010004 | 75 | 251 | 6.1 | 10.4 | 0.00 | 0.01 | 0.01 | 43 | 1008.6 |
| 20260506005004 | 76 | 235 | 5.2 | 8.7 | 0.00 | 0.01 | 0.01 | 43 | 1008.6 |
| 20260506004004 | 76 | 251 | 7.8 | 13.0 | 0.00 | 0.01 | 0.01 | 42 | 1008.5 |
| 20260506003504 | 76 | 247 | 6.1 | 13.9 | 0.00 | 0.01 | 0.01 | 41 | 1008.5 |
| 20260506003004 | 76 | 245 | 5.2 | 10.4 | 0.00 | 0.01 | 0.01 | 40 | 1008.5 |
| 20260506002004 | 76 | 230 | 5.2 | 17.4 | 0.00 | 0.01 | 0.01 | 39 | 1008.3 |
| 20260506001504 | 77 | 240 | 2.6 | 12.2 | 0.00 | 0.01 | 0.01 | 38 | 1008.3 |
| 20260506001004 | 77 | 245 | 6.1 | 10.4 | 0.00 | 0.01 | 0.01 | 38 | 1008.3 |
| 20260506000504 | 77 | 241 | 6.1 | 13.0 | 0.00 | 0.01 | 0.01 | 37 | 1008.3 |
| 20260506000004 | 77 | 254 | 5.2 | 13.0 | 0.00 | 0.01 | 0.01 | 36 | 1008.2 |
| 20260505234504 | 78 | 240 | 4.3 | 12.2 | 0.00 | 0.01 | 0.01 | 35 | 1008.0 |
| 20260505234004 | 78 | 250 | 7.0 | 13.9 | 0.00 | 0.01 | 0.01 | 35 | 1008.0 |
| 20260505233504 | 78 | 243 | 5.2 | 13.0 | 0.00 | 0.01 | 0.01 | 35 | 1008.0 |
| 20260505233004 | 78 | 237 | 6.1 | 14.8 | 0.00 | 0.01 | 0.01 | 34 | 1007.9 |
| 20260505232504 | 78 | 247 | 7.8 | 15.6 | 0.00 | 0.01 | 0.01 | 34 | 1008.0 |
| 20260505232005 | 78 | 246 | 6.1 | 17.4 | 0.00 | 0.01 | 0.01 | 34 | 1007.8 |
| 20260505231004 | 78 | 239 | 8.7 | 13.9 | 0.00 | 0.01 | 0.01 | 33 | 1007.7 |
| 20260505230503 | 79 | 262 | 7.8 | 17.4 | 0.00 | 0.01 | 0.01 | 33 | 1007.7 |
| 20260505225504 | 79 | 244 | 5.2 | 13.0 | 0.00 | 0.01 | 0.01 | 33 | 1007.6 |
| 20260505225004 | 79 | 250 | 7.8 | 14.8 | 0.00 | 0.01 | 0.01 | 32 | 1007.4 |
| 20260505224504 | 79 | 237 | 7.8 | 14.8 | 0.00 | 0.01 | 0.01 | 32 | 1007.4 |
| 20260505224004 | 79 | 262 | 5.2 | 14.8 | 0.00 | 0.01 | 0.01 | 32 | 1007.3 |
| 20260505223004 | 80 | 251 | 6.1 | 12.2 | 0.00 | 0.01 | 0.01 | 31 | 1007.4 |
| 20260505221504 | 80 | 283 | 8.7 | 14.8 | 0.00 | 0.01 | 0.01 | 30 | 1007.4 |
| 20260505221004 | 80 | 235 | 8.7 | 20.0 | 0.00 | 0.01 | 0.01 | 30 | 1007.5 |
| 20260505220004 | 80 | 237 | 7.8 | 18.2 | 0.00 | 0.01 | 0.01 | 30 | 1007.3 |
| 20260505215504 | 80 | 250 | 6.1 | 14.8 | 0.00 | 0.01 | 0.01 | 30 | 1007.2 |
| 20260505215004 | 80 | 269 | 8.7 | 20.0 | 0.00 | 0.01 | 0.01 | 30 | 1007.3 |
| 20260505214504 | 80 | 250 | 10.4 | 20.9 | 0.00 | 0.01 | 0.01 | 30 | 1007.3 |
| 20260505214004 | 80 | 259 | 12.2 | 21.7 | 0.00 | 0.01 | 0.01 | 30 | 1007.2 |
| 20260505213505 | 80 | 256 | 7.8 | 17.4 | 0.00 | 0.01 | 0.01 | 30 | 1007.1 |
| 20260505212504 | 81 | 249 | 7.8 | 15.6 | 0.00 | 0.01 | 0.01 | 30 | 1006.8 |
| 20260505212004 | 81 | 268 | 6.1 | 12.2 | 0.00 | 0.01 | 0.01 | 29 | 1006.9 |
| 20260505211504 | 81 | 245 | 8.7 | 18.2 | 0.00 | 0.01 | 0.01 | 29 | 1006.9 |
| 20260505211004 | 82 | 241 | 8.7 | 15.6 | 0.00 | 0.01 | 0.01 | 31 | 1006.8 |
| 20260505210004 | 82 | 246 | 13.0 | 20.9 | 0.00 | 0.01 | 0.01 | 30 | 1006.7 |
| 20260505205504 | 82 | 250 | 11.3 | 22.6 | 0.00 | 0.01 | 0.01 | 30 | 1006.7 |
| 20260505205004 | 82 | 237 | 12.2 | 20.0 | 0.00 | 0.01 | 0.01 | 29 | 1006.9 |
| 20260505204004 | 82 | 238 | 13.9 | 20.0 | 0.00 | 0.01 | 0.01 | 30 | 1006.9 |
| 20260505203504 | 82 | 242 | 7.8 | 22.6 | 0.00 | 0.01 | 0.01 | 30 | 1007.0 |
| 20260505203004 | 82 | 243 | 13.0 | 21.7 | 0.00 | 0.01 | 0.01 | 30 | 1007.1 |
| 20260505202004 | 82 | 230 | 12.2 | 27.8 | 0.00 | 0.01 | 0.01 | 31 | 1007.1 |
| 20260505201504 | 82 | 243 | 10.4 | 17.4 | 0.00 | 0.01 | 0.01 | 32 | 1007.0 |
| 20260505200504 | 82 | 247 | 8.7 | 17.4 | 0.00 | 0.01 | 0.01 | 32 | 1007.1 |
| 20260505200004 | 82 | 256 | 10.4 | 17.4 | 0.00 | 0.01 | 0.01 | 31 | 1007.1 |
| 20260505195504 | 82 | 248 | 12.2 | 20.0 | 0.00 | 0.01 | 0.01 | 32 | 1007.2 |
| 20260505194504 | 82 | 234 | 10.4 | 17.4 | 0.00 | 0.01 | 0.01 | 32 | 1007.2 |
| 20260505194004 | 83 | 227 | 7.8 | 17.4 | 0.00 | 0.01 | 0.01 | 33 | 1007.3 |
| 20260505193504 | 82 | 257 | 8.7 | 15.6 | 0.00 | 0.01 | 0.01 | 32 | 1007.3 |
| 20260505193004 | 82 | 265 | 8.7 | 19.1 | 0.00 | 0.01 | 0.01 | 32 | 1007.4 |
| 20260505192504 | 82 | 274 | 10.4 | 22.6 | 0.00 | 0.01 | 0.01 | 32 | 1007.4 |
| 20260505191004 | 83 | 259 | 10.4 | 19.1 | 0.00 | 0.01 | 0.01 | 31 | 1007.6 |
| 20260505190004 | 83 | 231 | 10.4 | 17.4 | 0.00 | 0.01 | 0.01 | 32 | 1007.6 |
| 20260505185004 | 83 | 247 | 8.7 | 20.0 | 0.00 | 0.01 | 0.01 | 33 | 1007.6 |
| 20260505184504 | 82 | 243 | 7.8 | 15.6 | 0.00 | 0.01 | 0.01 | 34 | 1008.0 |
| 20260505183504 | 82 | 233 | 8.7 | 20.0 | 0.00 | 0.01 | 0.01 | 34 | 1008.1 |
| 20260505183005 | 82 | 253 | 11.3 | 19.1 | 0.00 | 0.01 | 0.01 | 35 | 1008.0 |
| 20260505182004 | 82 | 251 | 10.4 | 19.1 | 0.00 | 0.01 | 0.01 | 35 | 1008.2 |
| 20260505181504 | 82 | 235 | 10.4 | 15.6 | 0.00 | 0.01 | 0.01 | 35 | 1008.3 |
| 20260505175504 | 82 | 275 | 6.1 | 13.9 | 0.00 | 0.01 | 0.01 | 37 | 1008.4 |
| 20260505174504 | 81 | 262 | 9.6 | 21.7 | 0.00 | 0.01 | 0.01 | 36 | 1008.4 |
| 20260505174005 | 81 | 255 | 7.8 | 14.8 | 0.00 | 0.01 | 0.01 | 37 | 1008.5 |
| 20260505173504 | 81 | 250 | 7.8 | 13.9 | 0.00 | 0.01 | 0.01 | 38 | 1008.5 |
| 20260505172504 | 81 | 226 | 6.1 | 15.6 | 0.00 | 0.01 | 0.01 | 39 | 1009.0 |
| 20260505172004 | 80 | 240 | 4.3 | 11.3 | 0.00 | 0.01 | 0.01 | 41 | 1009.0 |
| 20260505171503 | 80 | 255 | 7.8 | 12.2 | 0.00 | 0.01 | 0.01 | 41 | 1009.0 |
| 20260505171004 | 80 | 274 | 8.7 | 17.4 | 0.00 | 0.01 | 0.01 | 41 | 1009.0 |
| 20260505170504 | 80 | 253 | 7.0 | 13.0 | 0.00 | 0.01 | 0.01 | 41 | 1009.1 |
| 20260505170004 | 80 | 236 | 5.2 | 15.6 | 0.00 | 0.01 | 0.01 | 41 | 1009.0 |
| 20260505165004 | 80 | 253 | 4.3 | 10.4 | 0.00 | 0.01 | 0.01 | 41 | 1009.1 |
| 20260505164504 | 80 | 278 | 4.3 | 10.4 | 0.00 | 0.01 | 0.01 | 43 | 1009.3 |
| 20260505164004 | 79 | 270 | 4.3 | 13.9 | 0.00 | 0.01 | 0.01 | 42 | 1009.3 |
| 20260505163504 | 79 | 269 | 7.8 | 14.8 | 0.00 | 0.01 | 0.01 | 43 | 1009.4 |
| 20260505163005 | 78 | 218 | 5.2 | 10.4 | 0.00 | 0.01 | 0.01 | 43 | 1009.5 |